Jefferson City, MO

7:14 PM CDT on May 22, 2018 (GMT -0500)
Jefferson City Memorial

Weather History for KJEF - October, 2013

Change the Weather History Date:

Tuesday, October 8, 2013

  Actual Average Record
Temperature  
Mean Temperature 58 °F -  
Max Temperature 75 °F 71 °F 93 °F (1928)
Min Temperature 42 °F 44 °F 23 °F (1952)
Degree Days  
Heating Degree Days 6    
Growing Degree Days 8 (Base 50)    
Moisture  
Dew Point 46 °F    
Average Humidity 73    
Maximum Humidity 100    
Minimum Humidity 34    
Precipitation  
Precipitation 0.01 in - - ()
Sea Level Pressure  
Sea Level Pressure 30.12 in    
Wind  
Wind Speed 5 mph (SE)    
Max Wind Speed 12 mph    
Max Gust Speed -    
Visibility 8 miles    
Events Fog    
Averages and records for this station are not official NWS values.
T = Trace of Precipitation, MM = Missing Value Source: NWS Daily Summary

Daily Weather History Graph

Daily Weather History Graph

Search for Another Location

Airport or City:

Astronomy

Oct. 08, 2013 Rise Set
Actual Time 7:11 AM CDT 6:40 PM CDT
Civil Twilight 6:44 AM CDT 7:06 PM CDT
Nautical Twilight 6:13 AM CDT 7:37 PM CDT
Astronomical Twilight 5:43 AM CDT 8:08 PM CDT
Moon 11:03 AM CDT (10/8) 9:19 PM CDT (10/8)
Length of Visible Light 12h 22m
Length of Day
11h 29m
Waxing Crescent, 16% of the Moon is Illuminated
Oct 8
Waxing Crescent
Oct 11
First Quarter
Oct 18
Full
Oct 26
Last Quarter
Nov 3
New

Hourly Weather History & Observations

Time (CDT) Temp. Windchill Dew Point Humidity Pressure Visibility Wind Dir Wind Speed Gust Speed Precip Events Conditions
12:53 AM 48.0 °F - 46.0 °F 93% 30.12 in 10.0 mi Calm Calm - N/A   Clear
1:53 AM 46.9 °F - 45.0 °F 93% 30.12 in 10.0 mi ESE 3.5 mph - N/A   Clear
2:53 AM 46.0 °F 43.9 °F 44.1 °F 93% 30.12 in 10.0 mi ESE 4.6 mph - N/A   Clear
3:53 AM 46.0 °F 44.8 °F 44.1 °F 93% 30.13 in 10.0 mi ESE 3.5 mph - N/A   Clear
4:53 AM 45.0 °F 41.8 °F 43.0 °F 93% 30.14 in 10.0 mi SE 5.8 mph - N/A   Clear
5:53 AM 44.1 °F 42.5 °F 42.1 °F 93% 30.14 in 10.0 mi SE 3.5 mph - N/A   Clear
6:50 AM 42.8 °F 39.3 °F 42.8 °F 100% 30.17 in 2.0 mi SE 5.8 mph - 0.01 in   Partly Cloudy
6:53 AM 43.0 °F 39.5 °F 42.1 °F 97% 30.14 in 1.8 mi SE 5.8 mph - 0.01 in   Scattered Clouds
7:03 AM 42.8 °F 38.6 °F 41.0 °F 93% 30.17 in 0.8 mi SE 6.9 mph - N/A   Mist
7:15 AM 42.8 °F 38.6 °F 42.8 °F 100% 30.17 in 0.5 mi SE 6.9 mph - N/A Fog Fog
7:26 AM 42.8 °F 38.6 °F 42.8 °F 100% 30.17 in 1.2 mi SE 6.9 mph - N/A   Partly Cloudy
7:31 AM 42.8 °F 39.3 °F 42.8 °F 100% 30.17 in 3.0 mi SE 5.8 mph - N/A   Partly Cloudy
7:53 AM 44.1 °F 41.5 °F 43.0 °F 96% 30.16 in 4.0 mi SE 4.6 mph - N/A   Clear
8:53 AM 50.0 °F - 46.9 °F 89% 30.16 in 4.0 mi SE 5.8 mph - N/A   Clear
9:08 AM 51.8 °F - 48.2 °F 88% 30.19 in 2.0 mi SE 5.8 mph - N/A   Clear
9:18 AM 51.8 °F - 48.2 °F 88% 30.19 in 10.0 mi SE 4.6 mph - N/A   Clear
9:53 AM 55.0 °F - 50.0 °F 83% 30.17 in 10.0 mi ESE 4.6 mph - N/A   Clear
10:53 AM 64.0 °F - 52.0 °F 65% 30.15 in 10.0 mi Variable 3.5 mph - N/A   Clear
11:53 AM 70.0 °F - 48.0 °F 46% 30.14 in 10.0 mi SE 8.1 mph - N/A   Clear
12:53 PM 72.0 °F - 43.0 °F 35% 30.12 in 10.0 mi South 6.9 mph - N/A   Clear
1:14 PM 71.6 °F - 44.6 °F 38% 30.14 in 2.0 mi SE 10.4 mph - N/A   Haze
1:24 PM 73.4 °F - 44.6 °F 36% 30.13 in 10.0 mi SE 10.4 mph - N/A   Clear
1:53 PM 73.9 °F - 44.1 °F 34% 30.09 in 10.0 mi SSE 11.5 mph - N/A   Clear
2:53 PM 73.9 °F - 45.0 °F 35% 30.07 in 10.0 mi South 10.4 mph - N/A   Clear
3:53 PM 75.0 °F - 46.0 °F 36% 30.06 in 10.0 mi SE 8.1 mph - N/A   Clear
4:53 PM 73.9 °F - 48.0 °F 40% 30.06 in 10.0 mi SE 4.6 mph - N/A   Clear
5:53 PM 73.0 °F - 48.0 °F 41% 30.06 in 10.0 mi SSE 6.9 mph - N/A   Clear
6:53 PM 66.9 °F - 48.9 °F 52% 30.06 in 10.0 mi ESE 3.5 mph - N/A   Clear
7:53 PM 62.1 °F - 50.0 °F 65% 30.07 in 10.0 mi ESE 4.6 mph - N/A   Clear
8:53 PM 57.9 °F - 50.0 °F 75% 30.08 in 10.0 mi SE 3.5 mph - N/A   Clear
9:53 PM 57.0 °F - 48.9 °F 74% 30.08 in 10.0 mi East 3.5 mph - N/A   Clear
10:53 PM 57.0 °F - 48.9 °F 74% 30.08 in 10.0 mi SE 5.8 mph - N/A   Clear
11:53 PM 54.0 °F - 48.0 °F 80% 30.08 in 10.0 mi ESE 6.9 mph - N/A   Clear